�N����,����,�~����,�C��,���x,�C��,����,���ϕ���,�ő�u�ԕ���,�ő厞����,���˗�,�I�_���x,�n�����x,�ő啗���N��,DTYPE
"18/03/31","00:10",0.0,6.0,72.8,1018.5,317.0,3.9,5.8,336.4,0.00,1.5,10.3,"00:04:30",1
"18/03/31","00:20",0.0,6.0,73.6,1018.7,321.0,3.6,5.5,333.7,0.00,1.7,10.3,"00:19:40",1
"18/03/31","00:30",0.0,5.8,73.4,1018.5,328.3,3.9,5.9,330.1,0.00,1.5,10.2,"00:20:08",1
"18/03/31","00:40",0.0,5.5,75.8,1018.7,321.8,3.1,5.1,328.4,0.00,1.6,10.1,"00:38:04",1
"18/03/31","00:50",0.0,5.6,75.1,1018.5,314.6,3.1,5.5,331.1,0.00,1.6,10.2,"00:40:48",1
"18/03/31","01:00",0.0,5.6,74.4,1018.7,320.4,3.6,6.2,327.9,0.00,1.5,10.0,"00:54:56",1
"18/03/31","01:10",0.0,5.2,76.1,1018.5,319.6,2.7,4.4,334.9,0.00,1.4,10.0,"01:01:08",1
"18/03/31","01:20",0.0,5.4,76.7,1018.5,325.6,3.6,5.2,325.7,0.00,1.7,10.1,"01:17:40",1
"18/03/31","01:30",0.0,5.3,76.2,1018.7,322.8,3.7,5.5,316.0,0.00,1.5,10.0,"01:23:12",1
"18/03/31","01:40",0.0,5.0,76.1,1018.5,327.0,3.5,5.4,326.4,0.00,1.2,9.9,"01:30:24",1
"18/03/31","01:50",0.0,4.8,79.0,1018.5,322.9,2.8,4.1,329.5,0.00,1.5,9.8,"01:48:16",1
"18/03/31","02:00",0.0,5.2,78.0,1018.0,322.3,4.0,5.5,332.2,0.00,1.7,9.7,"01:58:22",1
"18/03/31","02:10",0.0,5.2,77.2,1018.2,319.6,4.2,6.0,331.7,0.00,1.6,9.8,"02:04:02",1
"18/03/31","02:20",0.0,5.0,78.2,1018.2,322.8,3.9,5.9,332.4,0.00,1.6,9.8,"02:16:40",1
"18/03/31","02:30",0.0,5.0,78.4,1018.0,321.0,4.0,6.0,322.8,0.00,1.6,9.6,"02:24:14",1
"18/03/31","02:40",0.0,4.9,78.0,1018.2,325.5,3.9,6.0,330.0,0.00,1.4,9.7,"02:32:08",1
"18/03/31","02:50",0.0,4.8,78.9,1017.8,323.6,3.7,5.5,307.8,0.00,1.5,9.6,"02:47:54",1
"18/03/31","03:00",0.0,4.8,78.3,1017.8,323.3,4.6,6.5,328.8,0.00,1.4,9.5,"02:53:06",1
"18/03/31","03:10",0.0,4.4,78.3,1017.5,328.6,3.0,5.7,313.3,0.00,1.0,9.5,"03:00:40",1
"18/03/31","03:20",0.0,4.1,81.0,1017.5,326.4,2.6,4.5,297.6,0.00,1.2,9.3,"03:19:36",1
"18/03/31","03:30",0.0,3.9,80.9,1017.8,325.1,2.3,4.9,334.5,0.00,1.0,9.3,"03:24:08",1
"18/03/31","03:40",0.0,3.7,82.1,1018.2,323.4,2.3,4.4,317.1,0.00,1.0,9.4,"03:30:24",1
"18/03/31","03:50",0.0,3.7,82.5,1017.5,329.7,2.5,3.9,331.4,0.00,1.0,9.4,"03:49:04",1
"18/03/31","04:00",0.0,3.6,82.7,1017.5,334.6,2.3,3.7,344.9,0.00,1.0,9.3,"03:56:16",1
"18/03/31","04:10",0.0,3.6,83.1,1017.5,335.6,2.5,4.0,339.7,0.00,1.0,9.3,"04:05:44",1
"18/03/31","04:20",0.0,3.3,83.2,1017.5,328.8,2.5,3.6,341.3,0.00,0.8,9.2,"04:18:32",1
"18/03/31","04:30",0.0,3.2,84.2,1017.5,329.3,2.6,4.7,335.8,0.00,0.8,9.1,"04:26:16",1
"18/03/31","04:40",0.0,3.1,84.6,1017.3,327.3,2.6,4.5,337.8,0.00,0.8,9.2,"04:32:32",1
"18/03/31","04:50",0.0,3.1,85.0,1017.8,328.7,3.0,4.5,335.5,0.00,0.9,9.0,"04:46:48",1
"18/03/31","05:00",0.0,3.3,84.7,1017.8,325.1,3.5,5.4,337.6,0.00,1.0,8.9,"04:56:32",1
"18/03/31","05:10",0.0,3.2,83.5,1017.5,316.2,2.3,3.9,330.0,0.00,0.7,9.0,"05:00:08",1
"18/03/31","05:20",0.0,3.0,84.1,1017.3,301.4,1.8,3.3,335.6,0.00,0.6,8.9,"05:14:08",1
"18/03/31","05:30",0.0,2.6,84.6,1017.5,295.7,1.8,3.5,324.2,0.00,0.3,8.8,"05:20:40",1
"18/03/31","05:40",0.0,2.7,85.4,1017.3,318.4,2.7,3.9,322.9,0.00,0.5,8.8,"05:34:56",1
"18/03/31","05:50",0.0,2.7,84.5,1017.1,301.6,2.3,4.3,315.1,0.00,0.4,8.8,"05:42:02",1
"18/03/31","06:00",0.0,2.5,85.0,1017.5,306.8,2.3,3.1,319.9,0.00,0.3,8.7,"05:53:20",1
"18/03/31","06:10",0.0,2.6,85.3,1017.8,303.3,2.3,3.9,320.7,0.00,0.4,8.7,"06:04:16",1
"18/03/31","06:20",0.0,2.6,84.9,1017.5,319.8,1.7,2.6,309.4,0.00,0.4,8.7,"06:13:12",1
"18/03/31","06:30",0.0,2.8,85.2,1018.0,314.8,1.5,2.1,317.7,0.00,0.6,8.6,"06:26:40",1
"18/03/31","06:40",0.0,3.2,85.9,1017.8,298.2,1.5,3.6,324.0,0.01,1.1,8.6,"06:38:00",1
"18/03/31","06:50",0.0,4.1,83.6,1018.0,319.2,3.1,4.1,325.9,0.02,1.6,8.7,"06:45:12",1
"18/03/31","07:00",0.0,4.7,80.4,1018.0,305.9,2.7,4.3,333.7,0.03,1.7,8.5,"06:56:40",1
"18/03/31","07:10",0.0,4.8,78.9,1018.5,321.1,2.3,4.7,337.0,0.05,1.5,8.6,"07:04:40",1
"18/03/31","07:20",0.0,5.7,75.6,1018.7,334.8,1.6,2.9,326.7,0.06,1.8,8.6,"07:11:20",1
"18/03/31","07:30",0.0,6.2,73.6,1019.0,327.2,2.1,3.7,329.7,0.08,1.9,8.8,"07:24:00",1
"18/03/31","07:40",0.0,7.0,70.7,1019.2,326.8,2.0,3.5,334.7,0.10,2.1,8.9,"07:38:00",1
"18/03/31","07:50",0.0,7.5,68.9,1019.4,333.0,1.5,3.1,341.8,0.13,2.2,8.9,"07:42:00",1
"18/03/31","08:00",0.0,8.1,66.8,1019.4,342.2,0.8,2.2,345.3,0.15,2.3,9.0,"07:50:56",1
"18/03/31","08:10",0.0,8.3,66.1,1019.7,116.0,0.6,1.6,114.0,0.18,2.4,9.3,"08:09:16",1
"18/03/31","08:20",0.0,8.7,65.0,1019.7,153.4,0.5,1.0,168.0,0.21,2.5,9.4,"08:11:04",1
"18/03/31","08:30",0.0,9.1,62.6,1020.1,156.9,0.5,1.0,118.4,0.24,2.4,9.7,"08:21:20",1
"18/03/31","08:40",0.0,9.8,59.5,1019.7,255.1,0.6,1.0,301.9,0.26,2.3,9.7,"08:33:28",1
"18/03/31","08:50",0.0,10.1,58.7,1019.7,308.8,0.3,0.9,136.1,0.29,2.4,9.9,"08:47:28",1
"18/03/31","09:00",0.0,10.7,55.8,1019.9,263.1,0.5,1.6,318.5,0.31,2.3,10.1,"08:50:02",1
"18/03/31","09:10",0.0,11.1,55.0,1020.1,349.4,0.6,1.4,210.0,0.34,2.4,10.6,"09:08:56",1
"18/03/31","09:20",0.0,11.2,51.7,1020.1,231.3,1.0,2.2,119.8,0.36,1.7,10.6,"09:17:28",1
"18/03/31","09:30",0.0,12.0,50.3,1019.7,201.2,0.7,2.2,133.9,0.38,2.0,11.0,"09:26:40",1
"18/03/31","09:40",0.0,12.3,51.2,1019.4,212.0,1.0,2.2,204.6,0.40,2.6,11.1,"09:38:24",1
"18/03/31","09:50",0.0,12.3,49.3,1019.2,181.2,1.2,2.6,189.6,0.43,2.0,11.4,"09:41:12",1
"18/03/31","10:00",0.0,12.8,49.9,1019.0,128.1,0.8,2.2,108.5,0.45,2.7,11.7,"09:58:16",1
"18/03/31","10:10",0.0,13.4,49.9,1019.2,204.2,1.1,2.4,235.1,0.46,3.2,12.0,"10:07:20",1
"18/03/31","10:20",0.0,14.5,49.7,1018.7,265.1,1.0,2.6,124.3,0.48,4.2,12.2,"10:10:02",1
"18/03/31","10:30",0.0,13.7,47.3,1018.7,82.5,1.0,2.6,124.3,0.49,2.7,12.4,"10:20:08",1
"18/03/31","10:40",0.0,15.3,48.3,1018.5,324.6,1.3,2.8,314.0,0.51,4.5,12.6,"10:32:16",1
"18/03/31","10:50",0.0,14.5,47.0,1018.2,91.8,1.3,2.8,122.2,0.52,3.4,13.2,"10:47:12",1
"18/03/31","11:00",0.0,14.7,45.4,1017.8,222.1,1.2,2.5,231.7,0.53,3.1,13.2,"10:58:32",1
"18/03/31","11:10",0.0,15.4,45.7,1017.8,186.6,1.5,2.9,140.9,0.54,3.8,13.5,"11:04:32",1
"18/03/31","11:20",0.0,15.3,43.2,1017.8,93.9,1.0,3.4,114.7,0.55,2.9,14.0,"11:14:16",1
"18/03/31","11:30",0.0,16.0,44.5,1017.5,176.1,1.7,3.2,204.9,0.56,4.0,14.2,"11:29:52",1
"18/03/31","11:40",0.0,16.0,44.3,1016.8,118.4,1.1,2.4,90.5,0.56,3.9,14.4,"11:34:16",1
"18/03/31","11:50",0.0,16.7,43.1,1016.8,164.4,1.2,3.6,206.5,0.56,4.1,14.6,"11:45:44",1
"18/03/31","12:00",0.0,16.6,43.6,1017.1,167.0,1.5,3.5,157.1,0.57,4.2,14.7,"11:50:16",1
"18/03/31","12:10",0.0,17.7,41.5,1016.4,44.0,1.2,2.8,131.8,0.56,4.5,15.2,"12:03:20",1
"18/03/31","12:20",0.0,17.5,42.9,1016.6,99.4,1.5,4.2,121.0,0.56,4.8,15.5,"12:18:00",1
"18/03/31","12:30",0.0,18.9,43.4,1016.4,73.3,1.8,5.0,142.7,0.56,6.2,15.7,"12:22:16",1
"18/03/31","12:40",0.0,19.7,43.6,1015.4,138.9,3.7,9.7,172.5,0.56,7.0,16.0,"12:33:12",1
"18/03/31","12:50",0.0,18.8,41.2,1015.6,313.3,2.2,5.2,346.5,0.56,5.4,16.2,"12:40:40",1
"18/03/31","13:00",0.0,19.3,45.1,1015.4,305.6,1.5,4.8,336.8,0.55,7.2,16.4,"12:58:00",1
"18/03/31","13:10",0.0,19.3,43.8,1014.7,214.7,2.6,4.9,220.4,0.55,6.7,16.4,"13:04:56",1
"18/03/31","13:20",0.0,19.1,42.7,1014.9,220.9,2.6,5.4,225.9,0.54,6.2,16.9,"13:18:00",1
"18/03/31","13:30",0.0,19.7,43.5,1014.7,244.7,2.6,4.1,219.3,0.53,7.0,16.7,"13:26:56",1
"18/03/31","13:40",0.0,19.2,41.3,1014.5,204.4,2.7,4.3,194.2,0.52,5.8,16.8,"13:38:40",1
"18/03/31","13:50",0.0,20.0,40.9,1014.5,184.9,2.5,4.9,213.1,0.51,6.4,17.0,"13:42:48",1
"18/03/31","14:00",0.0,20.0,38.8,1014.0,207.0,3.1,6.5,218.2,0.50,5.6,17.0,"13:54:40",1
"18/03/31","14:10",0.0,19.4,40.3,1013.8,202.1,3.1,5.4,226.0,0.49,5.6,17.2,"14:04:24",1
"18/03/31","14:20",0.0,20.3,39.9,1014.0,252.1,2.6,5.9,157.5,0.47,6.3,17.3,"14:19:20",1
"18/03/31","14:30",0.0,20.0,43.2,1013.8,213.5,2.8,6.0,231.7,0.45,7.2,17.2,"14:22:32",1
"18/03/31","14:40",0.0,19.9,39.0,1013.8,219.6,3.1,5.8,222.1,0.43,5.6,17.3,"14:33:12",1
"18/03/31","14:50",0.0,20.3,36.5,1013.3,203.7,2.7,6.0,228.1,0.42,5.0,17.3,"14:42:32",1
"18/03/31","15:00",0.0,20.0,33.8,1013.0,217.3,2.1,4.8,219.9,0.40,3.6,17.4,"14:51:28",1
"18/03/31","15:10",0.0,19.9,33.7,1013.0,205.9,3.2,6.4,222.3,0.38,3.5,17.3,"15:07:20",1
"18/03/31","15:20",0.0,19.9,34.7,1013.3,200.1,3.2,5.1,225.6,0.35,3.9,17.2,"15:14:40",1
"18/03/31","15:30",0.0,19.8,34.3,1013.0,213.2,2.6,5.2,194.7,0.33,3.7,17.3,"15:26:08",1
"18/03/31","15:40",0.0,19.6,35.6,1012.8,207.0,2.8,6.2,135.3,0.31,4.0,17.1,"15:32:56",1
"18/03/31","15:50",0.0,20.3,35.0,1013.0,267.3,1.7,3.1,245.4,0.28,4.4,17.2,"15:41:44",1
"18/03/31","16:00",0.0,20.2,33.2,1013.3,227.7,2.2,4.7,223.6,0.25,3.6,17.1,"15:50:40",1
"18/03/31","16:10",0.0,19.9,32.4,1012.8,216.4,2.2,4.1,202.6,0.23,2.9,17.1,"16:04:24",1
"18/03/31","16:20",0.0,19.8,35.8,1012.8,213.4,2.2,3.7,233.8,0.20,4.3,17.0,"16:16:16",1
"18/03/31","16:30",0.0,19.6,37.4,1013.0,190.1,2.7,4.7,196.3,0.18,4.7,16.8,"16:21:20",1
"18/03/31","16:40",0.0,19.4,38.2,1013.0,194.4,2.5,3.9,187.5,0.15,4.8,16.8,"16:30:32",1
"18/03/31","16:50",0.0,19.2,38.3,1013.3,191.3,2.8,4.3,219.9,0.12,4.7,16.5,"16:49:44",1
"18/03/31","17:00",0.0,19.0,37.6,1013.0,212.4,2.7,4.4,229.3,0.10,4.3,16.4,"16:52:24",1
"18/03/31","17:10",0.0,18.7,35.2,1013.3,214.1,2.7,4.9,224.7,0.08,3.1,16.4,"17:08:24",1
"18/03/31","17:20",0.0,18.6,35.8,1013.3,190.5,2.2,3.9,193.6,0.06,3.2,16.1,"17:12:16",1
"18/03/31","17:30",0.0,18.3,38.3,1013.5,214.3,2.2,4.2,231.8,0.04,3.9,16.2,"17:26:00",1
"18/03/31","17:40",0.0,18.0,40.6,1013.5,205.6,2.0,3.5,221.4,0.03,4.5,15.9,"17:30:32",1
"18/03/31","17:50",0.0,17.7,44.1,1013.5,197.0,2.1,3.9,201.7,0.01,5.4,15.7,"17:40:24",1
"18/03/31","18:00",0.0,17.2,46.1,1013.8,207.9,1.8,3.4,174.3,0.00,5.6,15.4,"17:53:44",1
"18/03/31","18:10",0.0,16.9,48.4,1014.0,230.1,1.7,3.4,221.4,0.00,6.0,15.4,"18:08:48",1
"18/03/31","18:20",0.0,16.7,50.4,1014.2,236.8,1.8,3.2,234.5,0.00,6.4,15.3,"18:10:40",1
"18/03/31","18:30",0.0,16.2,52.4,1014.0,261.4,0.8,1.4,246.9,0.00,6.5,15.4,"18:20:08",1
"18/03/31","18:40",0.0,15.6,54.6,1014.0,304.1,1.2,2.2,318.9,0.00,6.5,15.1,"18:35:28",1
"18/03/31","18:50",0.0,14.7,57.4,1014.2,340.5,1.2,2.4,332.2,0.00,6.4,15.1,"18:41:28",1
"18/03/31","19:00",0.0,14.0,60.2,1014.2,332.3,1.0,1.4,332.9,0.00,6.5,14.7,"18:50:08",1
"18/03/31","19:10",0.0,13.6,62.3,1014.7,333.3,1.5,2.0,335.5,0.00,6.6,14.7,"19:07:36",1
"18/03/31","19:20",0.0,13.1,64.3,1014.5,321.4,1.1,2.0,332.6,0.00,6.6,14.5,"19:10:16",1
"18/03/31","19:30",0.0,13.0,66.2,1014.9,340.1,1.7,2.6,325.7,0.00,6.9,14.2,"19:28:12",1
"18/03/31","19:40",0.0,12.9,67.6,1014.9,317.4,2.0,3.3,339.8,0.00,7.1,14.3,"19:39:50",1
"18/03/31","19:50",0.0,13.0,67.4,1014.9,316.1,2.1,3.3,315.8,0.00,7.1,14.0,"19:45:02",1
"18/03/31","20:00",0.0,12.9,67.3,1014.9,326.0,1.8,2.8,351.2,0.00,7.0,14.0,"19:52:58",1
"18/03/31","20:10",0.0,12.8,68.4,1015.2,327.4,1.8,3.3,336.2,0.00,7.2,13.7,"20:04:18",1
"18/03/31","20:20",0.0,12.6,68.5,1015.2,330.3,2.0,2.9,336.9,0.00,7.0,13.8,"20:18:04",1
"18/03/31","20:30",0.0,12.2,69.6,1015.4,321.1,1.8,2.4,320.6,0.00,6.9,13.7,"20:23:20",1
"18/03/31","20:40",0.0,11.9,71.4,1015.4,313.6,1.8,2.7,324.6,0.00,6.9,13.5,"20:35:22",1
"18/03/31","20:50",0.0,11.7,72.8,1015.2,320.9,2.0,2.5,335.6,0.00,7.0,13.2,"20:46:36",1
"18/03/31","21:00",0.0,11.5,73.6,1015.2,317.6,1.5,2.4,332.1,0.00,7.0,13.1,"20:51:18",1
"18/03/31","21:10",0.0,11.4,74.4,1014.9,331.4,1.7,2.1,325.5,0.00,7.1,13.2,"21:05:58",1
"18/03/31","21:20",0.0,11.1,74.9,1014.9,314.0,1.8,2.4,339.1,0.00,6.9,13.0,"21:11:16",1
"18/03/31","21:30",0.0,10.9,77.7,1015.2,302.2,1.8,2.2,314.1,0.00,7.2,12.8,"21:25:04",1
"18/03/31","21:40",0.0,10.9,79.0,1015.2,318.0,2.2,3.1,315.6,0.00,7.4,12.7,"21:33:44",1
"18/03/31","21:50",0.0,10.7,79.6,1015.2,304.6,1.8,3.4,331.0,0.00,7.4,12.8,"21:41:14",1
"18/03/31","22:00",0.0,10.6,81.1,1015.2,308.4,1.8,2.6,315.3,0.00,7.5,12.7,"21:54:14",1
"18/03/31","22:10",0.0,10.5,81.5,1015.2,323.6,1.7,2.4,319.6,0.00,7.5,12.5,"22:09:46",1
"18/03/31","22:20",0.0,10.5,82.2,1015.2,302.6,2.1,2.6,330.8,0.00,7.6,12.4,"22:12:08",1
"18/03/31","22:30",0.0,10.5,82.9,1014.9,307.8,2.5,3.5,318.8,0.00,7.8,12.3,"22:23:30",1
"18/03/31","22:40",0.0,10.5,82.9,1014.9,328.5,1.6,3.6,323.6,0.00,7.8,12.2,"22:33:20",1
"18/03/31","22:50",0.0,10.3,83.0,1015.2,332.3,1.3,2.1,300.7,0.00,7.6,12.3,"22:49:54",1
"18/03/31","23:00",0.0,9.9,84.1,1015.2,311.2,1.3,2.4,306.1,0.00,7.4,12.2,"22:50:16",1
"18/03/31","23:10",0.0,9.8,85.3,1015.2,301.9,1.8,2.7,338.1,0.00,7.5,12.2,"23:04:32",1
"18/03/31","23:20",0.0,9.6,85.2,1015.4,314.1,1.5,2.0,271.7,0.00,7.3,12.2,"23:17:20",1
"18/03/31","23:30",0.0,9.2,85.4,1015.2,311.7,1.6,2.6,322.0,0.00,6.9,12.0,"23:26:56",1
"18/03/31","23:40",0.0,9.0,87.2,1015.2,315.1,1.0,1.8,314.8,0.00,7.0,12.0,"23:38:48",1
"18/03/31","23:50",0.0,9.0,88.2,1015.4,310.4,1.7,2.5,322.1,0.00,7.2,11.8,"23:47:30",1
"18/03/31","24:00",0.0,8.7,88.6,1014.9,301.2,1.7,2.9,327.6,0.00,7.0,11.8,"23:59:04",1
